Regional Weather Roundup
Issued by NWS

Current Version | Previous Version | Text Only | Print | Product List | Glossary On
Versions: 1 2 3 4 5 6 7 8 9 10 11 12 13 14 15 16 17 18 19 20 21 22 23 24 25 26 27 28 29 30 31 32 33 34 35 36 37 38 39 40 41 42 43 44 45 46 47 48 49 50
000
ASUS43 KOAX 260110
RWRNE

WEATHER ROUNDUP FOR NEBRASKA
NATIONAL WEATHER SERVICE OMAHA NE
800 PM CDT MON SEP 25 2017

NOTES: SATELLITE DATA IS BEING USED TO AUGMENT CLOUD COVER ABOVE
       12000 FEET.
       "FAIR" INDICATES FEW OR NO CLOUDS BELOW 12,000 FEET WITH NO
       SIGNIFICANT WEATHER AND/OR OBSTRUCTIONS TO VISIBILITY.


NEZ001>004-019>022-054>056-260200-
NEBRASKA PANHANDLE

CITY           SKY/WX    TMP DP  RH WIND       PRES   REMARKS
SCOTTSBLUFF    PTCLDY    50  42  74 SE6       30.07R
ALLIANCE       CLOUDY    48  41  76 E10       30.07S
CHADRON        CLEAR     48  40  73 E7        30.08S
GORDON         CLOUDY    48  42  80 NE3       30.09S
KIMBALL        CLOUDY    46  39  76 CALM      30.10R
SIDNEY         CLOUDY    49  41  74 NE9       30.10R
$$

NEZ057>060-069>072-079>082-260200-
SOUTHWEST NEBRASKA

CITY           SKY/WX    TMP DP  RH WIND       PRES   REMARKS
NORTH PLATTE   LGT RAIN  49  48  97 N8        30.07R
IMPERIAL       LGT RAIN  49  46  90 NE7       30.07R
LEXINGTON      CLOUDY    51  48  90 N8        30.04R
MCCOOK         CLOUDY    51  50  96 N9        30.05R
OGALLALA       CLOUDY    51  47  88 E7        30.07S
$$

NEZ005>010-023>029-035>040-094-260200-
NORTH CENTRAL NEBRASKA

CITY           SKY/WX    TMP DP  RH WIND       PRES   REMARKS
VALENTINE      CLOUDY    49  47  93 N7        30.09S
AINSWORTH      CLOUDY    48  47  97 N9        30.08R
BROKEN BOW     LGT RAIN  50  47  89 N16       30.03F
O`NEILL        LGT RAIN  49  49 100 N12       30.06R
ORD            CLOUDY    50  46  86 N10       30.03R
THEDFORD       RAIN      48  47  94 N3        30.08R
$$

NEZ041-046>049-061>064-073>077-083>087-260200-
SOUTH CENTRAL NEBRASKA

CITY           SKY/WX    TMP DP  RH WIND       PRES   REMARKS
GRAND ISLAND   LGT RAIN  51  51 100 N12       30.02S FOG
AURORA         DRIZZLE   52  52 100 N13       30.01R
HASTINGS       LGT RAIN  52  50  93 N14       30.01R FOG
HEBRON         LGT RAIN  58  57  97 N3        29.99S
HOLDREGE       CLOUDY    50  49  95 N9G16     30.02R
KEARNEY        LGT RAIN  50  49  96 N14       30.03R FOG
YORK           LGT RAIN  54  54 100 N9        30.00R
$$

NEZ011>018-030>034-042>045-260200-
NORTHEAST NEBRASKA

CITY           SKY/WX    TMP DP  RH WIND       PRES   REMARKS
NORFOLK        CLOUDY    53  52  96 N12       30.00R
ALBION         CLOUDY    52  51  95 N10       30.02R
BLAIR          RAIN      59  58  98 N10       29.96R
COLUMBUS       CLOUDY    55  52  89 VRB6      30.00R
FREMONT        CLOUDY    57  56  97 N8        29.98R
TEKAMAH        CLOUDY    58  56  93 N13       29.97R
WAYNE          CLOUDY    54  52  92 N9        30.00R
$$

NEZ050>053-065>068-078-088>093-260200-
SOUTHEAST NEBRASKA

CITY           SKY/WX    TMP DP  RH WIND       PRES   REMARKS
LINCOLN        LGT RAIN  59  57  93 N10       29.96R
OMAHA EPPLEY   LGT RAIN  61  58  90 NW10      29.95R FOG
BEATRICE       LGT RAIN  62  61  97 N7        29.96R
FALLS CITY     RAIN      67  65  93 NW9       29.93R
NEBRASKA CITY  RAIN      64  64 100 NE6       29.94S
PLATTSMOUTH    RAIN      64  64 100 N3        29.94R
$$

NEZ044-045-051>053-067-260200-
OMAHA AREA

CITY           SKY/WX    TMP DP  RH WIND       PRES   REMARKS
OMAHA EPPLEY   LGT RAIN  61  58  90 NW10      29.95R FOG
BLAIR          RAIN      59  58  98 N10       29.96R
FREMONT        CLOUDY    57  56  97 N8        29.98R
MILLARD        LGT RAIN  63  62  94 N5        29.96R
OFFUTT AFB     RAIN      63  61  94 CALM      29.95R
PLATTSMOUTH    RAIN      64  64 100 N3        29.94R
WAHOO          CLOUDY    58  57  98 N7        29.97R FOG
$$




USA.gov is the U.S. government's official web portal to all federal, state and local government web resources and services.